| time (UTC) | temp F | wind direction | speed knots | gust knots | rain 1hr in | rain 24hr in | rain mn in | humidity % | barometer mb |
| 20260504174537 | 51 | 275 | 6.1 | 22.6 | 0.00 | 0.97 | 0.36 | 73 | 999.6 |
| 20260504173034 | 50 | 285 | 10.4 | 27.8 | 0.00 | 0.97 | 0.36 | 73 | 999.6 |
| 20260504171533 | 50 | 297 | 7.8 | 23.5 | 0.00 | 0.97 | 0.36 | 78 | 999.1 |
| 20260504140107 | 41 | 287 | 5.2 | 18.2 | 0.06 | 0.95 | 0.35 | 96 | 995.7 |
| 20260504100113 | 36 | 280 | 5.2 | 22.6 | 0.02 | 0.77 | 0.17 | 96 | 986.1 |
| 20260504081536 | 38 | 270 | 6.1 | 21.7 | 0.02 | 0.73 | 0.13 | 97 | 980.2 |
| 20260504050001 | 39 | 214 | 0.0 | 3.5 | 0.02 | 0.65 | 0.04 | 98 | 974.6 |
| 20260504044601 | 39 | 169 | 0.0 | 1.7 | 0.02 | 0.64 | 0.03 | 98 | 974.4 |
| 20260504043115 | 39 | 169 | 0.0 | 4.3 | 0.02 | 0.63 | 0.02 | 98 | 974.0 |
| 20260504041557 | 39 | 118 | 3.5 | 7.0 | 0.02 | 0.63 | 0.02 | 98 | 974.1 |
| 20260504040055 | 39 | 103 | 3.5 | 13.9 | 0.02 | 0.62 | 0.02 | 97 | 974.4 |
| 20260504034553 | 39 | 132 | 4.3 | 16.5 | 0.02 | 0.61 | 0.01 | 97 | 975.0 |
| 20260504033054 | 39 | 120 | 7.0 | 16.5 | 0.02 | 0.61 | 0.01 | 97 | 975.7 |
| 20260504031548 | 39 | 137 | 7.8 | 16.5 | 0.01 | 0.61 | 0.00 | 97 | 976.5 |
| 20260504030041 | 39 | 116 | 7.0 | 24.3 | 0.01 | 0.61 | 0.00 | 96 | 977.0 |
| 20260504024547 | 40 | 112 | 7.8 | 18.2 | 0.00 | 0.60 | 0.60 | 96 | 978.0 |
| 20260504023034 | 40 | 171 | 5.2 | 13.0 | 0.00 | 0.60 | 0.60 | 96 | 979.0 |
| 20260504021531 | 41 | 123 | 7.8 | 13.9 | 0.01 | 0.60 | 0.60 | 96 | 979.6 |
| 20260504020031 | 41 | 121 | 8.7 | 15.6 | 0.02 | 0.60 | 0.60 | 97 | 980.5 |
| 20260504014525 | 42 | 134 | 7.8 | 14.8 | 0.05 | 0.60 | 0.60 | 97 | 981.6 |
| 20260504013021 | 42 | 102 | 5.2 | 19.1 | 0.06 | 0.60 | 0.60 | 97 | 982.2 |
| 20260504011519 | 42 | 110 | 7.0 | 20.0 | 0.08 | 0.57 | 0.57 | 97 | 982.6 |
| 20260504010017 | 42 | 129 | 7.0 | 15.6 | 0.08 | 0.56 | 0.56 | 97 | 983.1 |
| 20260504004533 | 42 | 113 | 7.0 | 24.3 | 0.06 | 0.55 | 0.55 | 97 | 984.1 |
| 20260504003012 | 42 | 121 | 7.0 | 18.2 | 0.06 | 0.54 | 0.54 | 97 | 984.6 |
| 20260504001509 | 42 | 88 | 4.3 | 15.6 | 0.03 | 0.50 | 0.50 | 97 | 985.5 |
| 20260504000006 | 41 | 95 | 3.5 | 17.4 | 0.07 | 0.50 | 0.50 | 97 | 986.1 |
| 20260503234504 | 40 | 72 | 3.5 | 13.9 | 0.13 | 0.49 | 0.49 | 97 | 986.6 |
| 20260503233001 | 39 | 135 | 2.6 | 13.0 | 0.17 | 0.48 | 0.48 | 97 | 987.9 |
| 20260503231600 | 39 | 310 | 1.7 | 10.4 | 0.19 | 0.47 | 0.47 | 97 | 988.7 |
| 20260503230108 | 38 | 102 | 5.2 | 16.5 | 0.18 | 0.43 | 0.43 | 97 | 989.3 |
| 20260503224554 | 38 | 81 | 3.5 | 13.0 | 0.19 | 0.37 | 0.37 | 97 | 990.2 |
| 20260503223050 | 38 | 140 | 1.7 | 7.8 | 0.19 | 0.31 | 0.31 | 96 | 991.5 |
| 20260503221552 | 38 | 61 | 2.6 | 10.4 | 0.17 | 0.28 | 0.28 | 96 | 992.4 |
| 20260503220044 | 39 | 48 | 2.6 | 9.6 | 0.15 | 0.24 | 0.24 | 96 | 993.7 |
| 20260503214541 | 39 | 52 | 2.6 | 8.7 | 0.12 | 0.18 | 0.18 | 96 | 994.8 |
| 20260503213038 | 39 | 149 | 3.5 | 8.7 | 0.09 | 0.13 | 0.13 | 96 | 995.3 |
| 20260503211540 | 39 | 125 | 4.3 | 9.6 | 0.07 | 0.10 | 0.10 | 96 | 995.5 |
| 20260503210034 | 39 | 136 | 2.6 | 12.2 | 0.06 | 0.09 | 0.09 | 95 | 995.9 |
| 20260503204533 | 40 | 81 | 4.3 | 10.4 | 0.04 | 0.06 | 0.06 | 95 | 996.0 |
| 20260503203030 | 40 | 122 | 2.6 | 8.7 | 0.02 | 0.04 | 0.04 | 95 | 997.2 |
| 20260503201529 | 41 | 127 | 3.5 | 9.6 | 0.02 | 0.03 | 0.03 | 94 | 997.4 |
| 20260503200027 | 41 | 128 | 2.6 | 9.6 | 0.02 | 0.03 | 0.03 | 94 | 997.8 |
| 20260503194524 | 41 | 332 | 3.5 | 13.0 | 0.02 | 0.02 | 0.02 | 93 | 998.2 |
| 20260503193034 | 42 | 46 | 3.5 | 11.3 | 0.01 | 0.02 | 0.02 | 93 | 999.5 |
| 20260503191518 | 41 | 154 | 2.6 | 11.3 | 0.00 | 0.01 | 0.01 | 92 | 1000.2 |
| 20260503190025 | 42 | 23 | 4.3 | 16.5 | 0.01 | 0.01 | 0.01 | 92 | 1000.4 |
| 20260503184516 | 42 | 7 | 4.3 | 13.9 | 0.01 | 0.01 | 0.01 | 91 | 1001.4 |
| 20260503183010 | 43 | 25 | 7.0 | 13.9 | 0.01 | 0.01 | 0.01 | 90 | 1002.3 |
| 20260503181506 | 43 | 325 | 1.7 | 5.2 | 0.01 | 0.01 | 0.01 | 88 | 1003.6 |
| 20260503180001 | 44 | 345 | 2.6 | 5.2 | 0.00 | 0.00 | 0.00 | 85 | 1005.1 |